Home   Weather   Currie   Past weeks

Flag for Australia Past Weather in Currie, Tasmania, Australia — Yesterday and Last 2 Weeks

Now
53 °F

Cool.


Feels Like: 47 °F
Forecast: 53 / 59 °F
Wind: 21 mph from Southwest

Location: Cape Grim B. A. P. S.*

Current Time: Dec 10, 2016 at 4:30:40 am

Latest Report: Dec 10, 2016 at 3:00 am


Visibility: N/A

Pressure: 30.11 "Hg

Humidity: 63%

Dew Point: 40 °F

Location of CurrieLocation

Past Weather in Currie — Graph

°F

Currie Temperature Yesterday

Maximum temperature yesterday: 56 °F (at 3:00 pm)
Minimum temperature yesterday: 49 °F (at 3:00 am)
Average temperature yesterday: 52 °F

High & Low Weather Summary for the Past Weeks

 TemperatureHumidityPressure
High64 °F (Nov 30, 1:00 pm)99% (Dec 8, 10:00 am)30.13 "Hg (Dec 8, 10:00 am)
Low49 °F (Dec 4, 1:00 am)51% (Dec 5, 6:00 pm)29.18 "Hg (Dec 8, 3:00 pm)
Average56 °F74%29.89 "Hg
* Reported Nov 25 3:00 am — Dec 10 3:00 am, Currie, Weather by CustomWeather, © 2016

Note: Actual official high and low records may vary slightly from our data, if they occured in-between our weather recording intervals... More about our weather records

Advertising

Currie Weather History for the Previous 24 Hours

Scroll right to see more
 ConditionsComfort  
Time TempWeatherWind HumidityBarometerVisibility
3:00 am
Sat, Dec 10
53 °FCool.21 mph63%30.11 "HgN/A
2:00 am52 °FCool.23 mph71%30.11 "HgN/A
1:00 am52 °FCool.21 mph72%30.12 "HgN/A
12:00 am52 °FCool.18 mph74%30.13 "HgN/A
11:00 pm
Fri, Dec 9
51 °FCool.25 mph74%30.13 "HgN/A
10:00 pm53 °FCool.22 mph78%30.12 "HgN/A
9:00 pm52 °FCool.24 mph75%30.10 "HgN/A
8:00 pm53 °FCool.29 mph68%30.09 "HgN/A
7:00 pm52 °FCool.32 mph66%30.06 "HgN/A
6:00 pm53 °FCool.33 mph64%30.04 "HgN/A
4:00 pm53 °FCool.36 mph69%30.01 "HgN/A
3:00 pm56 °FRefreshingly cool.37 mph60%30.00 "HgN/A
2:00 pm54 °FCool.39 mph67%29.98 "HgN/A
1:00 pm55 °FCool.40 mph57%29.96 "HgN/A
12:00 pm54 °FCool.39 mph56%29.94 "HgN/A
10:00 am53 °FCool.44 mph59%29.89 "HgN/A
9:00 am51 °FCool.45 mph61%29.87 "HgN/A
8:00 am51 °FCool.46 mph64%29.84 "HgN/A
7:00 am50 °FCool.47 mph73%29.79 "HgN/A
6:00 am50 °FCool.43 mph72%29.75 "HgN/A
4:00 am50 °FCool.52 mph63%29.69 "HgN/A
Weather by CustomWeather, © 2016

See weather overviewHow to use our weather pages